This is the latest recevied weather packets stored in our database for station/object AA7VG. If no packets are shown the sender has not sent any weather packets the latest 10 day(s).
| Time | Temp. | Humidity | Pressure | Rain* | Wind** | Luminosity | Snow |
|---|---|---|---|---|---|---|---|
| 1787810128 | 18.33° C | 57% | 1020.3 hPa | 0 mm | - | - | - |
| 1787809824 | 18.33° C | 57% | 1020.3 hPa | 0 mm | - | - | - |
| 1787809523 | 18.33° C | 57% | 1020.2 hPa | 0 mm | - | - | - |
| 1787809221 | 18.33° C | 57% | 1020.2 hPa | 0 mm | - | - | - |
| 1787808916 | 18.33° C | 58% | 1020.1 hPa | 0 mm | - | - | - |
| 1787808616 | 18.33° C | 58% | 1020.1 hPa | 0 mm | - | - | - |
| 1787808314 | 18.33° C | 58% | 1019.9 hPa | 0 mm | - | - | - |
| 1787808009 | 18.33° C | 58% | 1020.1 hPa | 0 mm | - | - | - |
| 1787807708 | 18.89° C | 57% | 1020.2 hPa | 0 mm | - | - | - |
| 1787807404 | 18.89° C | 57% | 1020.1 hPa | 0 mm | - | - | - |
| 1787807100 | 18.33° C | 57% | 1020.3 hPa | 0 mm | - | - | - |
| 1787806798 | 18.33° C | 58% | 1020.4 hPa | 0 mm | - | - | - |
| 1787806493 | 18.33° C | 57% | 1020.7 hPa | 0 mm | - | - | - |
| 1787806191 | 19.44° C | 56% | 1020.4 hPa | 0 mm | - | - | - |
| 1787805887 | 18.89° C | 55% | 1020.5 hPa | 0 mm | - | - | - |
| 1787805583 | 18.89° C | 55% | 1020.7 hPa | 0 mm | - | - | - |
| 1787805278 | 18.33° C | 58% | 1020.9 hPa | 0 mm | - | - | - |
| 1787804977 | 18.33° C | 60% | 1021 hPa | 0 mm | - | - | - |
| 1787804672 | 18.33° C | 60% | 1020.9 hPa | 0 mm | - | - | - |
| 1787804372 | 18.89° C | 58% | 1020.9 hPa | 0 mm | - | - | - |
| 1787804067 | 20.56° C | 50% | 1021 hPa | 0 mm | - | - | - |
| 1787803762 | 20.56° C | 48% | 1020.9 hPa | 0 mm | - | - | - |
| 1787803466 | 20.56° C | 48% | 1020.7 hPa | 0 mm | - | - | - |
| 1787803159 | 20.56° C | 47% | 1020.7 hPa | 0 mm | - | - | - |
| 1787802855 | 20.56° C | 47% | 1021 hPa | 0 mm | - | - | - |
* Rain latest hour (hover to see other rain measurements)
** Current wind speed in m/s (hover to see current wind gust speed)